Location: Unspecified
(50.8661°N, 0.0000°E)
Time: 03:44:11
(UTC+00:00)

CZ-6A R/B DEB - Visible Passes

Search period start: 04 April 2026 00:00
Search period end: 14 April 2026 00:00
Orbit: 795 x 1004 km, 88.8° (Epoch: 28 March)

Date Brightness Start Highest point End Pass type
(mag) Time Alt. Az. Time Alt. Az. Time Alt. Az.
4 Apr ? 04:05:44 10° SE 04:10:18 24° ENE 04:14:42 10° NNE visible
5 Apr ? 04:08:05 10° SE 04:12:51 27° ENE 04:17:27 10° NNE visible
6 Apr ? 04:10:27 10° SE 04:15:25 29° ENE 04:20:11 10° NNE visible
7 Apr ? 04:12:53 10° SE 04:17:59 33° ENE 04:22:54 10° NNE visible
8 Apr ? 04:15:19 10° SE 04:20:33 37° E 04:25:36 10° NNE visible
9 Apr ? 04:17:46 10° SSE 04:23:09 41° E 04:28:17 10° NNE visible
10 Apr ? 04:20:16 10° SSE 04:25:43 46° E 04:30:57 10° N visible
11 Apr ? 04:22:47 10° SSE 04:28:19 52° E 04:33:36 10° N visible
12 Apr ? 02:49:00 10° ENE 02:49:01 10° ENE 02:49:03 10° ENE visible
12 Apr ? 04:25:20 10° SSE 04:30:54 59° E 04:36:15 10° N visible
13 Apr ? 02:49:48 10° E 02:51:31 11° ENE 02:53:13 10° NE visible
13 Apr ? 04:27:53 10° SSE 04:33:30 66° E 04:38:53 10° N visible
